This demonstration page uses our WeatherBlox Daily Observations layout. Learn more.

39.29038, -76.61219

Hourly Observations for May 10, 2019

Temp ( °F °C ) Dew Point ( °F °C ) Humidity (%) Winds ( mph kmh ) Pressure ( in mb ) Visibility ( mi km ) Precip ( " mm )
12:54 am 00:54 undefined 68 20 61 16.1 78 78 undefined N/A 30.11 1020 N/A 0 0
1:54 am 01:54 undefined 67 19.4 61 16.1 81 81 undefined N/A 30.08 1019 N/A 0 0
2:54 am 02:54 undefined 67 19.4 61 16.1 81 81 undefined N/A 30.07 1018 N/A 0 0
3:54 am 03:54 undefined 66 18.9 60 15.6 81 81 undefined N/A 30.06 1018 N/A 0 0
4:54 am 04:54 undefined 66 18.9 60 15.6 81 81 undefined N/A 30.05 1018 N/A 0 0
5:54 am 05:54 undefined 67 19.4 60 15.6 79 79 undefined N/A 30.05 1018 N/A 0 0
6:54 am 06:54 undefined 67 19.4 60 15.6 79 79 undefined N/A 30.04 1017 N/A 0 0
7:54 am 07:54 undefined 68 20 60 15.6 76 76 undefined N/A 30.04 1017 N/A 0 0
8:54 am 08:54 undefined 69 20.6 60 15.6 73 73 undefined N/A 30.04 1017 N/A 0 0
9:54 am 09:54 undefined 70 21.1 61 16.1 73 73 undefined N/A 30.02 1017 N/A 0 0
10:54 am 10:54 undefined 74 23.3 61 16.1 64 64 undefined N/A 30.04 1017 N/A 0 0
11:54 am 11:54 undefined 78 25.6 61 16.1 56 56 undefined N/A 30.02 1017 N/A 0 0
12:54 pm 12:54 undefined 81 27.2 62 16.7 53 53 undefined N/A 29.99 1016 N/A 0 0
1:54 pm 13:54 undefined 80 26.7 62 16.7 54 54 undefined N/A 29.96 1015 N/A 0 0
2:54 pm 14:54 undefined 82 27.8 63 17.2 53 53 undefined N/A 29.95 1014 N/A 0 0
3:54 pm 15:54 undefined 79 26.1 64 17.8 60 60 undefined N/A 29.94 1014 N/A 0 0
4:54 pm 16:54 undefined 71 21.7 66 18.9 84 84 undefined N/A 29.96 1015 N/A 0.07 1.778
5:54 pm 17:54 undefined 72 22.2 66 18.9 82 82 undefined N/A 29.94 1014 N/A 0.02 0.508
6:54 pm 18:54 undefined 72 22.2 65 18.3 79 79 undefined N/A 29.98 1015 N/A 0 0
7:54 pm 19:54 undefined 72 22.2 65 18.3 79 79 undefined N/A 29.96 1014 N/A 0 0
8:54 pm 20:54 undefined 70 21.1 65 18.3 84 84 undefined N/A 29.93 1014 N/A 0 0
9:54 pm 21:54 undefined 67 19.4 64 17.8 91 91 undefined N/A 29.98 1015 N/A 0.77 19.558
10:54 pm 22:54 undefined 67 19.4 64 17.8 91 91 undefined N/A 29.96 1015 N/A 0.35 8.89
11:54 pm 23:54 undefined 66 18.9 64 17.8 93 93 undefined N/A 29.98 1015 N/A 0 0

Powered by AerisWeather